Content
SEND FEEDBACK

Daily
Averages
Monthly
Summary
France

LE HAVRE, FRANCE


Home > Europe > France
Elevation: 338 feet     Latitude: 49 31N     Longitude: 000 04E

WEATHER
 
SELECT A DAY
Number of Records: 176,732;   Date Range: 3/4/97 - 8/10/14
 
SHARE

PRINT THIS DATA

[ ← Previous Day ]
WEATHER ALMANAC - SEPTEMBER 18, 2013
[ Next Day → ]
[ °C ]   °F
Weather ElementAverageHighLow
Temperature59.5 °F60.8 °F (12:30 am)57.2 °F (8:30 am)
Dewpoint51.5 °F57.2 °F (12:30 am)41 °F (10:00 pm)
Humidity75.1 %88 % (12:30 am)51 % (10:00 pm)
Barometer29.67 in29.89 in (10:30 pm)29.53 in (12:30 am)
Wind Speed19.8 mph29.9 mph (2:00 am)
Wind Gust44.9 mph (3:00 am)
Weather ElementAverage
Visibility6.1 mi
Wind DirectionWNW (289.4 °)

Weather ElementTotal
Precipitation---
Heating Degree Days6 (Base 65)
Growing Degree Days9 (Base 50)
Averaged from 47 records on September 18, 2013
WEATHER CONDITIONS BREAKOUT
WIND DIRECTION BREAKOUT
WEATHER BY HOUR - SEPTEMBER 18, 2013
[ °C ]   °F
Local TimeTemperatureDewpointHumidityBarometerVisibilityWind DirectionWind SpeedGust SpeedPrecipitationEventsConditions
12:30 AM60.8 °F57.2 °F88 %29.53 in6.2 miWest (260°)28.8 mphOvercast
1:00 AM60.8 °F55.4 °F82 %29.53 in6.2 miWest (260°)28.8 mphMostly Cloudy
1:30 AM60.8 °F55.4 °F82 %29.53 in6.2 miWest (260°)28.8 mphOvercast
2:00 AM60.8 °F53.6 °F77 %29.53 in6.2 miWest (260°)29.9 mph42.6 mphOvercast
2:30 AM60.8 °F55.4 °F82 %29.53 in6.2 miWest (260°)27.6 mph42.6 mphOvercast
3:00 AM60.8 °F53.6 °F77 %29.53 in6.2 miWest (260°)26.5 mph44.9 mphOvercast
3:30 AM60.8 °F53.6 °F77 %29.53 in6.2 miWest (260°)27.6 mph39.1 mphOvercast
4:00 AM60.8 °F53.6 °F77 %29.56 in6.2 miWest (270°)27.6 mphMostly Cloudy
4:30 AM60.8 °F53.6 °F77 %29.56 in6.2 miWest (260°)24.2 mph38.0 mphOvercast
5:00 AM60.8 °F53.6 °F77 %29.56 in6.2 miWest (270°)25.3 mphOvercast
5:30 AM60.8 °F53.6 °F77 %29.56 in6.2 miWest (260°)23.0 mphOvercast
6:00 AM60.8 °F51.8 °F72 %29.56 in6.2 miWest (260°)24.2 mphOvercast
6:30 AM60.8 °F51.8 °F72 %29.56 in6.2 miWest (260°)25.3 mphMostly Cloudy
7:00 AM60.8 °F53.6 °F77 %29.56 in6.2 miWest (270°)24.2 mphOvercast
7:30 AM60.8 °F53.6 °F77 %29.56 in6.2 miWest (260°)20.7 mphOvercast
8:00 AM59.0 °F53.6 °F82 %29.56 in6.2 miWest (280°)23.0 mph35.7 mphMostly Cloudy
8:30 AM57.2 °F53.6 °F88 %29.59 in3.7 miWNW (290°)19.6 mph32.2 mphMostly Cloudy
9:00 AM57.2 °F53.6 °F88 %29.59 in6.2 miWest (270°)19.6 mphOvercast
9:30 AM59.0 °F53.6 °F82 %29.59 in6.2 miWest (270°)21.9 mphOvercast
10:00 AM59.0 °F53.6 °F82 %29.59 in6.2 miWest (270°)21.9 mphOvercast
10:30 AM59.0 °F53.6 °F82 %29.62 in5.6 miWest (270°)19.6 mphOvercast
11:00 AM59.0 °F55.4 °F88 %29.62 in6.2 miWest (260°)20.7 mphMostly Cloudy
11:30 AM57.2 °F53.6 °F88 %29.62 in6.2 miWNW (290°)18.4 mph31.1 mphMostly Cloudy
12:00 PM59.0 °F53.6 °F82 %29.65 in6.2 miWest (280°)16.1 mphMostly Cloudy
12:30 PM59.0 °F53.6 °F82 %29.65 in6.2 miNW (320°)17.3 mphMostly Cloudy
1:00 PM59.0 °F55.4 °F88 %29.65 in6.2 miNW (310°)11.5 mphOvercast
1:30 PM59.0 °F53.6 °F82 %29.68 in6.2 miWNW (290°)15.0 mphOvercast
2:00 PM59.0 °F53.6 °F82 %29.68 in6.2 miNW (320°)17.3 mphOvercast
2:30 PM59.0 °F53.6 °F82 %29.68 in6.2 miNNW (330°)12.7 mphMostly Cloudy
3:00 PM59.0 °F53.6 °F82 %29.71 in6.2 miNNW (330°)13.8 mphOvercast
3:30 PM60.8 °F53.6 °F77 %29.71 in6.2 miNW (320°)12.7 mphMostly Cloudy
4:00 PM59.0 °F50.0 °F72 %29.74 in6.2 miNW (310°)13.8 mphScattered Clouds
4:30 PM59.0 °F50.0 °F72 %29.74 in6.2 miNW (320°)13.8 mphOvercast
5:00 PM60.8 °F51.8 °F72 %29.74 in6.2 miNW (320°)12.7 mphMostly Cloudy
5:30 PM60.8 °F50.0 °F68 %29.74 in6.2 miNW (310°)13.8 mphMostly Cloudy
6:00 PM59.0 °F48.2 °F67 %29.77 in6.2 miWNW (300°)16.1 mphMostly Cloudy
6:30 PM59.0 °F48.2 °F67 %29.80 in6.2 miNW (310°)16.1 mphMostly Cloudy
7:00 PM59.0 °F50.0 °F72 %29.80 in6.2 miWNW (300°)15.0 mphOvercast
7:30 PM59.0 °F46.4 °F63 %29.80 in6.2 miWNW (290°)17.3 mphOvercast
8:00 PM59.0 °F46.4 °F63 %29.80 in6.2 miNW (310°)17.3 mphMostly Cloudy
8:30 PM59.0 °F44.6 °F59 %29.83 in6.2 miNW (310°)18.4 mphOvercast
9:00 PM59.0 °F44.6 °F59 %29.83 in6.2 miNW (320°)17.3 mphOvercast
9:30 PM59.0 °F44.6 °F59 %29.86 in6.2 miNW (310°)16.1 mphMostly Cloudy
10:00 PM59.0 °F41.0 °F51 %29.86 in6.2 miNW (320°)18.4 mphMostly Cloudy
10:30 PM59.0 °F42.8 °F55 %29.89 in6.2 miNW (310°)17.3 mphOvercast
11:00 PM59.0 °F44.6 °F59 %29.89 in6.2 miNW (310°)17.3 mphMostly Cloudy
11:30 PM57.2 °F44.6 °F63 %29.89 in6.2 miNW (320°)17.3 mphOvercast
Hourly data recorded from LFOH, located miles away from Le Havre, France







STORIES FROM OUR PARTNERS